Вернуться в каталог

TIANFU DONGPO 01

АктивенСвязьPO
NORAD 53453·PAYLOAD·🇨🇳 China
Это название спутника еще не подтверждено официальными источниками.

Запущен Aug 10, 2022 с Taiyuan Satellite Launch Center

Loading…

Ближайшие Пролёты (ближайшие 24 часа)

TLE

СвежийSource: Space-Track

Эпоха: Sep 14, 2026, 15:09 UTC

1 53453U 22098K   26257.63138525  .00466828  10149-3  74793-3 0  9991
2 53453  97.5773  38.5909 0006978 262.2770  97.7717 16.03587392228914

Отслеживайте TIANFU DONGPO 01 в реальном времени с AllMySat

Download on the App Store